BSAT-3C (JCSAT-110R)

Last updated on Wed Sep 09 2026 00:02:59 GMT+0000 (Coordinated Universal Time)

1 37776U 11041B 26251.58683701 -.00000372 00000+0 00000+0 0 9992 2 37776 0.0506 310.5404 0000238 302.6696 55.6532 1.00270998 51306
UTC large
Height (km)
Speed (km/s)
/
Latitude / Longitude
Inclination (degrees)
Orbital Period (minutes)
Azimuth
Elevation
Range (km)
Doppler Factor

Next 0 passes for location: London (51.5072 / 0.1276)

No passes found over London.
BSAT-3C (JCSAT-110R)